Location: Unspecified
(0.0000°N, 0.0000°E)
Time: 10:23:04
(UTC+00:00)

Vanguard 1 Rocket - Visible Passes

Search period start: 20 December 2014 00:00
Search period end: 30 December 2014 00:00
Orbit: 655 x 4225 km, 34.3° (Epoch: 17 December)

Date Brightness Start Highest point End Pass type
(mag) Time Alt. Az. Time Alt. Az. Time Alt. Az.
20 Dec 11.6 01:22:52 10° SW 01:38:03 19° S 01:49:25 10° SE visible
20 Dec 10.5 03:59:08 10° SW 04:13:30 31° SSE 04:21:49 10° E visible
20 Dec 10.3 18:49:55 10° WNW 19:04:14 73° SW 19:29:29 10° SE visible
20 Dec 11.4 21:20:56 10° W 21:39:25 35° SSW 22:01:58 10° SE visible
21 Dec 11.7 00:03:22 10° SW 00:20:31 20° S 00:34:57 10° SE visible
21 Dec 11.1 02:43:54 10° SSW 02:59:25 25° SSE 03:09:20 10° ESE visible
21 Dec 9.2 05:16:32 10° SW 05:30:40 60° SSE 05:37:48 10° ENE visible
21 Dec 11.0 20:06:42 10° W 20:23:12 45° SSW 20:47:34 10° SE visible
21 Dec 11.7 22:44:03 10° WSW 23:02:18 24° SSW 23:20:19 10° SE visible
22 Dec 11.4 01:27:18 10° SW 01:43:48 22° S 01:55:36 10° SE visible
22 Dec 10.2 04:02:02 10° SW 04:18:11 41° SSE 04:26:52 10° E visible
22 Dec 10.5 18:54:14 10° WNW 19:08:14 60° SSW 19:32:39 10° SE visible
22 Dec 11.6 21:26:45 10° WSW 21:44:29 29° SSW 22:05:37 10° SE visible
23 Dec 11.7 00:09:11 10° SW 00:26:33 21° S 00:40:46 10° SE visible
23 Dec 10.8 02:46:58 10° SW 03:04:28 31° SSE 03:14:55 10° ESE visible
23 Dec 8.8 05:19:53 10° SW 05:34:46 82° SE 05:42:04 10° ENE visible
23 Dec 11.3 20:11:50 10° W 20:27:49 37° SSW 20:50:47 10° SE visible
23 Dec 11.8 22:50:30 10° SW 23:08:13 22° S 23:25:16 10° SE visible
24 Dec 11.3 01:31:05 10° SW 01:49:17 26° SSE 02:01:40 10° ESE visible
24 Dec 9.7 04:05:03 10° SW 04:22:38 55° SSE 04:31:33 10° ENE visible
24 Dec 10.8 18:58:50 10° W 19:12:30 49° SSW 19:35:44 10° SE visible
24 Dec 11.7 21:32:55 10° WSW 21:49:58 25° SSW 22:09:40 10° SE visible
25 Dec 11.6 00:14:12 10° SW 00:32:29 23° S 00:46:55 10° SE visible
25 Dec 10.5 02:49:57 10° SW 03:09:15 40° SSE 03:20:06 10° E visible
25 Dec 8.7 05:23:31 10° WSW 05:38:38 74° NW 05:46:04 10° NE visible
25 Dec 11.5 20:17:22 10° WSW 20:32:47 31° SSW 20:54:10 10° SE visible
25 Dec 11.8 22:56:35 10° SW 23:14:19 22° S 23:30:53 10° SE visible
26 Dec 11.1 01:34:28 10° SW 01:54:28 31° SSE 02:07:24 10° ESE visible
26 Dec 9.4 04:08:13 10° SW 04:26:49 72° SE 04:35:56 10° ENE visible
26 Dec 11.1 19:03:46 10° W 19:17:03 39° SSW 19:38:48 10° SE visible
26 Dec 11.8 21:39:13 10° SW 21:55:46 23° S 22:14:17 10° SE visible
27 Dec 11.5 00:18:29 10° SW 00:38:09 26° SSE 00:53:05 10° ESE visible
27 Dec 10.2 02:52:56 10° SW 03:13:45 51° SSE 03:24:55 10° ENE visible
27 Dec 8.9 05:27:29 10° WSW 05:42:18 55° NW 05:49:51 10° NE visible
27 Dec 10.6 17:51:42 10° WNW 18:02:44 52° SSW 18:23:31 10° SE visible
27 Dec 11.6 20:23:15 10° WSW 20:38:05 26° SSW 20:57:52 10° SE visible
27 Dec 11.7 23:02:00 10° SW 23:20:22 23° S 23:37:00 10° SE visible
28 Dec 10.8 01:37:38 10° SW 01:59:21 38° SSE 02:12:45 10° E visible
28 Dec 9.1 04:11:35 10° SW 04:30:45 89° NW 04:40:03 10° NE visible
28 Dec 11.3 19:09:04 10° WSW 19:21:53 32° SSW 19:41:56 10° SE visible
28 Dec 11.8 21:45:22 10° SW 22:01:48 22° S 22:19:36 10° SE visible
29 Dec 11.3 00:22:15 10° SW 00:43:30 30° SSE 00:59:01 10° ESE visible
29 Dec 9.8 02:56:00 10° SW 03:18:00 64° SSE 03:29:25 10° ENE visible
29 Dec 9.2 05:31:52 10° WSW 05:45:51 41° NW 05:53:26 10° NNE visible
29 Dec 10.9 17:56:28 10° W 18:07:13 41° SSW 18:26:30 10° SE visible
29 Dec 11.7 20:29:23 10° SW 20:43:42 23° S 21:02:03 10° SE visible
29 Dec 11.6 23:06:42 10° SW 23:26:13 25° SSE 23:43:18 10° ESE visible
